BREEZE-M DEB, 38566

Orbit data source: Space-Track

BREEZE-M DEB, 38566 is space debris in HEO originally from a launch on Fri, 14 Mar 2008 UTC launched from the Tyuratam Missile And Space Complex (TTMTR). Debris objects in space refer to the collection of defunct objects orbiting the Earth. Examples of debris include non-operational satellites, rocket bodies, and fragments generated from explosions, collisions, or faulty payload assembly.

Loading next visibility...
Identifier
38566, 2008-011M
Orbit
HEO
Country
Flag of CISCIS
Related business
Manufacturer
Unknown
Mission
Spacecraft
Bus & Motor
Unknown
Mass
Unknown
Launch date (UTC)
2008-03-14 (18 years ago)
Launch vehicle
Unknown
Launch site
Tyuratam Missile And Space Complex (TTMTR)
Object type
Payload
Rocket body
Debris
Shape & HBR
Unknown shape, 0.3 m
Radar Cross Section
Medium (>0.1 m² and <1 m²)

Expand to show TLE details & history
Last TLE update: 3 days ago

TLE from 3 days ago
0 BREEZE-M DEB
1 38566U 08011M   26171.19204735  .00000573  00000-0  55744-2 0  9998
2 38566  48.0557 132.4576 5368161  60.7501 342.2401  4.56182957 36187
Epoch: 2026-06-20T04:36Z
TLE epoch observation values (Epoch: 2026-06-20T04:36:32.891Z)
Latitude
-0.00004°
Longitude
154.89519°
Altitude
2,280.752 km
Speed
8.132 km/s
True Right ascension
08h 49m 46s
True Declination
0° 00' 00"
Sunlit
Object was in daylight at epoch
Visualization orbit readout
Latitude
Unknown
Longitude
Unknown
Altitude
Unknown
Speed
Unknown
Apparent Right ascension
Unknown
Apparent Declination
Unknown
Sunlit
N/A
Visualization observer readout
Local Sidereal Time
15:27:07
Azimuth
Unknown
Elevation
Unknown
Doppler factor
Unknown
Orbital elements
Apogee altitude
17,224.161 km
Perigee altitude
735.404 km
Semi-major axis
15,357.919 km
Eccentricity
0.53682
Inclination
48.0557°
RAAN
132.4576°
Arg. of periapsis
60.7501°
True anomaly
299.18855°
Mean anomaly
342.2401°
Eccentric anomaly
324.28573°
Mean motion
1.14037 °/min
Orbital period
315.69 mins
BSTAR
0.0055744
Loading maneuver chart data...
Computing Atmospheric mass density...
Loading historical data...
Loading historical data...
Loading historical data...
Loading historical data...
Loading historical data...
Loading historical data...
Loading historical data...

Documentation

Showing up to 5 results
|